Weather History for Henderson, KY

Change the Weather History Date:

Wednesday, December 4, 2013

  Actual Average Record
Temperature  
Mean Temperature 58 °F -  
Max Temperature 69 °F 48 °F 73 °F (1998)
Min Temperature 48 °F 31 °F 9 °F (1942)
Degree Days  
Heating Degree Days 6    
Growing Degree Days 8 (Base 50)    
Moisture  
Dew Point 54 °F    
Average Humidity 77    
Maximum Humidity 94    
Minimum Humidity 60    
Precipitation  
Precipitation 0.00 in - - ()
Sea Level Pressure  
Sea Level Pressure 29.72 in    
Wind  
Wind Speed 10 mph (South)    
Max Wind Speed 23 mph    
Max Gust Speed 30 mph    
Visibility 7 miles    
Events      
Averages and records for this station are not official NWS values.
T = Trace of Precipitation, MM = Missing Value Source: NWS Daily Summary

Daily Weather History Graph

Daily Weather History Graph

Search for Another Location

Airport:

Trip Planner

Search our weather history database for the weather conditions in past years. The results will help you decide how hot, cold, wet, or windy it might be!

Date:

Astronomy

Dec. 04, 2013 Rise Set
Actual Time 6:50 AM CST 4:31 PM CST
Civil Twilight 6:21 AM CST 5:00 PM CST
Nautical Twilight 5:48 AM CST 5:33 PM CST
Astronomical Twilight 5:16 AM CST 6:05 PM CST
Moon 8:18 AM CST (12/4) 6:40 PM CST (12/4)
Length of Visible Light 10h 39m
Length of Day
9h 41m
Waxing Crescent, 4% of the Moon is Illuminated
Dec 4
Waxing Crescent
Dec 9
First Quarter
Dec 17
Full
Dec 25
Last Quarter
Jan 1
New

Hourly Weather History & Observations

Time (CST) Temp. Dew Point Humidity Pressure Visibility Wind Dir Wind Speed Gust Speed Precip Events Conditions
12:15 AM 48.2 °F 46.4 °F 93% 29.74 in 2.0 mi SE 5.8 mph - N/A   Mostly Cloudy
12:35 AM 50.0 °F 48.2 °F 94% 29.74 in 2.0 mi SE 8.1 mph - N/A   Overcast
12:55 AM 51.8 °F 48.2 °F 88% 29.75 in 1.5 mi SE 5.8 mph - N/A   Overcast
1:15 AM 51.8 °F 48.2 °F 88% 29.76 in 1.0 mi SSE 3.5 mph - N/A   Overcast
1:35 AM 51.8 °F 48.2 °F 88% 29.76 in 0.8 mi Calm Calm - N/A   Overcast
1:55 AM 51.8 °F 48.2 °F 88% 29.76 in 0.5 mi ESE 4.6 mph - N/A   Overcast
2:15 AM 51.8 °F 48.2 °F 88% 29.77 in 0.8 mi East 3.5 mph - N/A   Overcast
2:35 AM 51.8 °F 48.2 °F 88% 29.76 in 1.8 mi ESE 3.5 mph - N/A   Overcast
2:55 AM 51.8 °F 50.0 °F 94% 29.75 in 2.0 mi East 6.9 mph - N/A   Overcast
3:15 AM 53.6 °F 51.8 °F 94% 29.75 in 3.0 mi SE 6.9 mph - N/A   Overcast
3:35 AM 53.6 °F 51.8 °F 94% 29.73 in 3.0 mi ESE 5.8 mph - N/A   Overcast
3:55 AM 53.6 °F 51.8 °F 94% 29.73 in 3.0 mi ESE 5.8 mph - N/A   Overcast
4:15 AM 53.6 °F 51.8 °F 94% 29.73 in 2.0 mi ESE 6.9 mph - N/A   Overcast
4:35 AM 53.6 °F 51.8 °F 94% 29.72 in 1.5 mi ESE 6.9 mph - N/A   Overcast
4:55 AM 53.6 °F 51.8 °F 94% 29.73 in 1.5 mi SE 5.8 mph - N/A   Overcast
5:15 AM 55.4 °F 51.8 °F 88% 29.73 in 1.5 mi ESE 6.9 mph - N/A   Overcast
5:35 AM 55.4 °F 53.6 °F 94% 29.73 in 2.0 mi ESE 9.2 mph - N/A   Overcast
5:55 AM 55.4 °F 53.6 °F 94% 29.73 in 2.0 mi SE 9.2 mph - N/A   Overcast
6:15 AM 55.4 °F 53.6 °F 94% 29.73 in 2.5 mi SE 10.4 mph - N/A   Overcast
6:35 AM 55.4 °F 53.6 °F 94% 29.73 in 2.5 mi SE 11.5 mph - N/A   Overcast
6:55 AM 55.4 °F 53.6 °F 94% 29.73 in 1.8 mi SE 13.8 mph - N/A   Overcast
7:15 AM 55.4 °F 53.6 °F 94% 29.74 in 1.8 mi SSE 9.2 mph - N/A   Overcast
7:35 AM 57.2 °F 53.6 °F 88% 29.73 in 2.0 mi SE 10.4 mph - N/A   Overcast
7:55 AM 57.2 °F 55.4 °F 94% 29.73 in 2.5 mi SSE 11.5 mph 16.1 mph N/A   Overcast
8:15 AM 57.2 °F 55.4 °F 94% 29.73 in 2.5 mi SSE 11.5 mph - N/A   Overcast
8:35 AM 59.0 °F 55.4 °F 88% 29.73 in 3.0 mi SSE 11.5 mph - N/A   Overcast
8:55 AM 59.0 °F 57.2 °F 94% 29.74 in 3.0 mi SSE 9.2 mph - N/A   Overcast
9:15 AM 60.8 °F 57.2 °F 88% 29.74 in 5.0 mi South 12.7 mph - N/A   Overcast
9:35 AM 62.6 °F 57.2 °F 82% 29.74 in 7.0 mi South 11.5 mph - N/A   Overcast
9:55 AM 62.6 °F 57.2 °F 82% 29.74 in 7.0 mi South 10.4 mph - N/A   Overcast
10:15 AM 64.4 °F 57.2 °F 77% 29.73 in 10.0 mi South 13.8 mph - N/A   Overcast
10:35 AM 64.4 °F 59.0 °F 83% 29.72 in 10.0 mi South 13.8 mph 18.4 mph N/A   Overcast
10:55 AM 66.2 °F 59.0 °F 78% 29.70 in 10.0 mi South 17.3 mph 24.2 mph N/A   Mostly Cloudy
11:15 AM 66.2 °F 57.2 °F 73% 29.69 in 10.0 mi South 21.9 mph 28.8 mph N/A   Mostly Cloudy
11:35 AM 68.0 °F 57.2 °F 68% 29.69 in 10.0 mi SSW 18.4 mph 26.5 mph N/A   Overcast
11:55 AM 69.8 °F 57.2 °F 64% 29.68 in 10.0 mi South 18.4 mph 28.8 mph N/A   Overcast
12:15 PM 69.8 °F 55.4 °F 60% 29.68 in 10.0 mi SSW 21.9 mph 29.9 mph N/A   Overcast
12:35 PM 69.8 °F 55.4 °F 60% 29.68 in 10.0 mi SSW 19.6 mph 27.6 mph N/A   Mostly Cloudy
12:55 PM 69.8 °F 55.4 °F 60% 29.67 in 10.0 mi South 23.0 mph 27.6 mph N/A   Mostly Cloudy
1:15 PM 69.8 °F 55.4 °F 60% 29.66 in 10.0 mi SSW 18.4 mph 25.3 mph N/A   Mostly Cloudy
1:35 PM 69.8 °F 55.4 °F 60% 29.65 in 10.0 mi SSW 19.6 mph 26.5 mph N/A   Mostly Cloudy
1:55 PM 69.8 °F 55.4 °F 60% 29.64 in 10.0 mi South 20.7 mph 27.6 mph N/A   Partly Cloudy
2:15 PM 69.8 °F 55.4 °F 60% 29.65 in 10.0 mi South 17.3 mph 23.0 mph N/A   Clear
2:35 PM 69.8 °F 55.4 °F 60% 29.64 in 10.0 mi South 16.1 mph 19.6 mph N/A   Clear
2:55 PM 69.8 °F 55.4 °F 60% 29.64 in 10.0 mi South 11.5 mph 18.4 mph N/A   Clear
3:15 PM 69.8 °F 55.4 °F 60% 29.65 in 10.0 mi South 15.0 mph - N/A   Clear
3:35 PM 69.8 °F 55.4 °F 60% 29.63 in 10.0 mi South 15.0 mph 21.9 mph N/A   Clear
3:55 PM 69.8 °F 55.4 °F 60% 29.64 in 10.0 mi South 17.3 mph 25.3 mph N/A   Clear
4:15 PM 69.8 °F 55.4 °F 60% 29.65 in 10.0 mi SSW 17.3 mph 28.8 mph N/A   Clear
4:35 PM 69.8 °F 55.4 °F 60% 29.65 in 10.0 mi SSW 18.4 mph 23.0 mph N/A   Clear
4:55 PM 68.0 °F 53.6 °F 60% 29.65 in 10.0 mi South 15.0 mph - N/A   Clear
5:15 PM 66.2 °F 53.6 °F 64% 29.66 in 10.0 mi South 13.8 mph 19.6 mph N/A   Clear
5:35 PM 66.2 °F 53.6 °F 64% 29.66 in 10.0 mi South 12.7 mph 20.7 mph N/A   Clear
5:55 PM 66.2 °F 53.6 °F 64% 29.67 in 10.0 mi South 11.5 mph - N/A   Clear
6:15 PM 66.2 °F 53.6 °F 64% 29.68 in 10.0 mi South 10.4 mph - N/A   Clear
6:35 PM 64.4 °F 53.6 °F 68% 29.69 in 10.0 mi SSW 10.4 mph - N/A   Clear
6:55 PM 66.2 °F 55.4 °F 68% 29.71 in 10.0 mi SSW 10.4 mph - N/A   Mostly Cloudy
7:15 PM 66.2 °F 55.4 °F 68% 29.71 in 10.0 mi SSW 10.4 mph - N/A   Overcast
7:35 PM 66.2 °F 55.4 °F 68% 29.72 in 10.0 mi SSW 10.4 mph - N/A   Mostly Cloudy
7:55 PM 64.4 °F 55.4 °F 73% 29.73 in 10.0 mi SSW 10.4 mph - N/A   Mostly Cloudy
8:15 PM 64.4 °F 55.4 °F 73% 29.74 in 10.0 mi SSW 8.1 mph - N/A   Scattered Clouds
8:35 PM 62.6 °F 53.6 °F 72% 29.74 in 10.0 mi SSW 6.9 mph - N/A   Partly Cloudy
8:55 PM 62.6 °F 53.6 °F 72% 29.75 in 10.0 mi SSW 8.1 mph - N/A   Scattered Clouds
9:15 PM 62.6 °F 55.4 °F 77% 29.74 in 10.0 mi South 9.2 mph - N/A   Partly Cloudy
9:35 PM 62.6 °F 55.4 °F 77% 29.75 in 10.0 mi SSW 9.2 mph - N/A   Clear
9:55 PM 64.4 °F 55.4 °F 73% 29.76 in 10.0 mi SSW 10.4 mph - N/A   Mostly Cloudy
10:15 PM 64.4 °F 55.4 °F 73% 29.76 in 10.0 mi SSW 10.4 mph - N/A   Mostly Cloudy
10:35 PM 64.4 °F 55.4 °F 73% 29.77 in 10.0 mi SW 10.4 mph 16.1 mph N/A   Scattered Clouds
10:55 PM 64.4 °F 55.4 °F 73% 29.78 in 10.0 mi WSW 10.4 mph - N/A   Mostly Cloudy
11:15 PM 64.4 °F 55.4 °F 73% 29.78 in 10.0 mi SW 8.1 mph - N/A   Overcast
11:35 PM 64.4 °F 55.4 °F 73% 29.78 in 10.0 mi SW 8.1 mph - N/A   Overcast
11:55 PM 62.6 °F 55.4 °F 77% 29.78 in 10.0 mi SW 6.9 mph - N/A   Overcast